カタログに戻る

SCOUT A DEB

運用中PO
NORAD 4555·DEBRIS·🇺🇸 United States

打ち上げ May 19, 1966 から Vandenberg Space Force Base

Loading…

次のパス (今後24時間)

TLE

最新Source: Space-Track

元期: Sep 14, 2026, 11:27 UTC

1 04555U 66041F   26257.47713866  .00001987  00000-0  47285-3 0  9994
2 04555  90.2035  76.8381 0040603 161.3085 198.9626 14.53099267436897

AllMySatでSCOUT A DEBをリアルタイム追跡

Download on the App Store